CW7959 Weather Reports


Display with metric or nautical units.
time (UTC)temp
F
wind
direction
speed
MPH
gust
MPH
rain 1hr
in
rain 24hr
in
rain mn
in
humidity
%
barometer
mb
20260502170404 54 223 0.0 0.0 0.00 0.00 0.00 85 1012.7
20260502163404 54 223 1.0 7.0 0.00 0.00 0.00 85 1012.7
20260502162904 54 223 0.0 3.0 0.00 0.00 0.00 85 1012.8
20260502161904 54 223 3.0 6.0 0.00 0.00 0.00 84 1012.8
20260502161404 54 223 2.0 5.0 0.00 0.00 0.00 85 1012.8
20260502160905 55 223 2.0 5.0 0.00 0.00 0.00 85 1012.8
20260502160404 55 223 4.0 7.0 0.00 0.00 0.00 84 1012.7
20260502151905 55 224 5.0 7.0 0.00 0.00 0.00 84 1013.0
20260502151406 55 224 2.0 8.0 0.00 0.00 0.00 84 1013.0
20260502150905 56 225 4.0 7.0 0.00 0.00 0.00 81 1012.9
20260502150406 57 225 5.0 7.0 0.00 0.00 0.00 81 1012.9
20260502130405 56 217 2.0 5.0 0.00 0.00 0.00 83 1013.4
20260502123404 57 212 4.0 7.0 0.00 0.00 0.00 82 1013.4
20260502122904 57 212 4.0 7.0 0.00 0.00 0.00 83 1013.5
20260502122405 57 212 5.0 7.0 0.00 0.00 0.00 83 1013.5
20260502121904 57 212 5.0 7.0 0.00 0.00 0.00 83 1013.5
20260502121404 57 212 5.0 7.0 0.00 0.00 0.00 83 1013.5
20260502120904 56 212 3.0 6.0 0.00 0.00 0.00 83 1013.5
20260502115904 56 211 1.0 6.0 0.00 0.00 0.00 86 1013.5
20260502115405 56 211 1.0 5.0 0.00 0.00 0.00 85 1013.5
20260502114905 56 211 1.0 3.0 0.00 0.00 0.00 87 1013.7
20260502113905 54 211 1.0 6.0 0.00 0.00 0.00 89 1013.7
20260502112905 54 211 2.0 8.0 0.00 0.00 0.00 89 1013.7
20260502112404 54 211 4.0 8.0 0.00 0.00 0.00 89 1013.8
20260502111404 54 211 5.0 8.0 0.00 0.00 0.00 89 1013.8
20260502110905 54 211 5.0 7.0 0.00 0.00 0.00 90 1013.8
20260502104906 53 211 3.0 7.0 0.00 0.00 0.00 90 1013.8
20260502104404 53 211 4.0 8.0 0.00 0.00 0.00 89 1013.7
20260502103904 53 211 6.0 10.0 0.00 0.00 0.00 87 1013.8
20260502103405 55 211 5.0 10.0 0.00 0.00 0.00 85 1013.7
20260502102905 57 217 2.0 10.0 0.00 0.00 0.00 83 1013.7
20260502102405 58 250 2.0 7.0 0.00 0.00 0.00 82 1013.6
20260502101904 58 232 2.0 7.0 0.00 0.00 0.00 82 1013.6
20260502101404 57 211 1.0 5.0 0.00 0.00 0.00 83 1013.6
20260502100905 58 211 2.0 6.0 0.00 0.00 0.00 81 1013.5
20260502100404 57 211 1.0 6.0 0.00 0.00 0.00 84 1013.5
20260502091404 56 216 4.0 8.0 0.00 0.00 0.00 87 1013.5
20260502090905 54 182 1.0 3.0 0.00 0.00 0.00 88 1013.4
20260502090404 54 182 0.0 3.0 0.00 0.01 0.00 88 1013.5
20260502071405 51 164 1.0 2.0 0.00 0.02 0.00 93 1013.6
20260502070905 51 164 1.0 3.0 0.00 0.02 0.00 93 1013.7
20260502065404 51 164 0.0 0.0 0.00 0.02 0.00 93 1013.6
20260502064905 51 164 0.0 2.0 0.00 0.02 0.00 93 1013.7
20260502064404 51 164 2.0 5.0 0.00 0.02 0.00 93 1013.6
20260502063904 51 164 0.0 3.0 0.00 0.02 0.00 93 1013.7
20260502063405 51 186 1.0 3.0 0.00 0.02 0.00 93 1013.8
20260502061905 51 193 2.0 3.0 0.00 0.02 0.00 93 1013.6
20260502061404 51 193 2.0 3.0 0.00 0.02 0.00 93 1013.5
20260502060905 50 193 0.0 2.0 0.00 0.02 0.00 93 1013.5
20260502060405 50 193 0.0 0.0 0.00 0.02 0.00 93 1013.4
20260502055905 51 193 0.0 0.0 0.00 0.02 0.00 92 1013.4
20260502055406 51 193 0.0 0.0 0.00 0.02 0.00 93 1013.4
20260502054905 51 193 0.0 0.0 0.00 0.02 0.00 93 1013.4
20260502054406 51 193 0.0 0.0 0.00 0.02 0.00 93 1013.4
20260502053905 51 193 0.0 1.0 0.00 0.02 0.00 93 1013.3
20260502053405 51 193 0.0 0.0 0.00 0.02 0.00 93 1013.3
20260502052906 51 193 0.0 0.0 0.00 0.02 0.00 93 1013.4
20260502052405 51 193 0.0 1.0 0.00 0.02 0.00 93 1013.5
20260502051906 51 193 0.0 0.0 0.00 0.02 0.00 92 1013.5
20260502051404 51 193 0.0 0.0 0.00 0.02 0.00 92 1013.5
20260502050404 51 193 0.0 0.0 0.00 0.02 0.00 92 1013.4
20260502045904 51 193 0.0 1.0 0.00 0.02 0.00 92 1013.4
20260502045404 51 193 0.0 2.0 0.00 0.02 0.00 92 1013.4
20260502044406 51 193 0.0 1.0 0.00 0.02 0.00 92 1013.4
20260502043906 51 193 0.0 3.0 0.00 0.02 0.00 92 1013.4
20260502043404 51 193 2.0 3.0 0.00 0.02 0.00 92 1013.4
20260502042404 51 193 0.0 3.0 0.00 0.02 0.00 91 1013.4
20260502041906 51 193 0.0 0.0 0.00 0.02 0.00 92 1013.5
20260502041406 51 193 0.0 1.0 0.00 0.02 0.00 92 1013.3
20260502040405 51 213 0.0 0.0 0.00 0.02 0.00 92 1013.4
20260502035405 52 213 0.0 0.0 0.00 0.02 0.00 91 1013.5
20260502034904 52 213 0.0 0.0 0.00 0.02 0.00 91 1013.5
20260502034405 52 213 0.0 0.0 0.00 0.02 0.00 91 1013.5
20260502033905 52 213 0.0 0.0 0.00 0.02 0.00 91 1013.5
20260502033404 52 213 1.0 3.0 0.00 0.02 0.00 91 1013.5
20260502032904 52 213 0.0 3.0 0.00 0.02 0.00 91 1013.5
20260502032405 52 213 0.0 2.0 0.00 0.02 0.00 91 1013.5
20260502031405 52 213 0.0 2.0 0.00 0.02 0.00 91 1013.6
20260502030905 52 213 0.0 0.0 0.00 0.02 0.00 91 1013.5
20260502025905 52 213 0.0 0.0 0.00 0.02 0.00 91 1013.7
20260502024905 52 213 0.0 0.0 0.00 0.02 0.00 90 1013.7
20260502023905 52 213 1.0 3.0 0.00 0.02 0.00 90 1013.8
20260502022905 52 213 0.0 0.0 0.00 0.02 0.00 89 1013.8
20260502022406 52 213 0.0 0.0 0.00 0.02 0.00 89 1013.9
20260502021905 52 213 0.0 0.0 0.00 0.02 0.00 89 1013.8
20260502021405 52 213 0.0 0.0 0.00 0.02 0.00 89 1013.9
20260502020905 52 213 0.0 3.0 0.00 0.02 0.00 89 1013.9
20260502020405 52 213 0.0 3.0 0.00 0.02 0.00 89 1013.8
20260502015405 52 213 1.0 5.0 0.00 0.02 0.00 89 1014.0
20260502014905 52 213 2.0 5.0 0.00 0.02 0.00 89 1014.1
20260502014405 52 213 0.0 0.0 0.00 0.02 0.00 89 1014.0
20260502013904 52 213 0.0 0.0 0.00 0.02 0.00 89 1014.0
20260502013406 52 213 0.0 0.0 0.00 0.02 0.00 89 1014.2
20260502012905 52 213 0.0 0.0 0.00 0.02 0.00 89 1014.2
20260502012404 52 213 0.0 0.0 0.00 0.02 0.00 89 1014.2
20260502011904 52 213 0.0 0.0 0.00 0.02 0.00 89 1014.3
20260502011406 52 213 0.0 0.0 0.00 0.02 0.00 89 1014.3
20260502010905 52 213 0.0 0.0 0.00 0.02 0.00 89 1014.4
20260502010405 52 213 0.0 0.0 0.00 0.02 0.00 88 1014.6
20260502005906 52 213 0.0 0.0 0.00 0.02 0.00 88 1014.5
20260502005405 52 213 0.0 0.0 0.00 0.02 0.00 88 1014.5
20260502004405 52 213 0.0 0.0 0.00 0.02 0.00 88 1014.5
20260502003905 52 213 0.0 0.0 0.00 0.02 0.00 87 1014.5
20260502003405 52 213 0.0 0.0 0.00 0.02 0.00 87 1014.6
20260502002905 52 213 0.0 0.0 0.00 0.02 0.00 88 1014.6
20260502002405 52 213 0.0 0.0 0.00 0.02 0.00 88 1014.5
20260502001906 52 213 0.0 0.0 0.00 0.02 0.00 88 1014.6
20260502001405 52 213 0.0 0.0 0.00 0.02 0.00 88 1014.6
20260502000905 52 213 0.0 0.0 0.00 0.02 0.00 88 1014.6
20260502000405 52 213 0.0 0.0 0.00 0.02 0.00 88 1014.8
20260501235904 52 213 0.0 0.0 0.00 0.02 0.00 88 1014.7
20260501235405 52 213 0.0 0.0 0.00 0.02 0.00 88 1014.7
20260501234405 52 213 0.0 0.0 0.00 0.02 0.00 87 1014.8
20260501233904 52 213 0.0 0.0 0.00 0.02 0.00 87 1014.9
20260501233404 52 213 0.0 0.0 0.00 0.02 0.00 87 1014.9
20260501232905 52 213 0.0 0.0 0.00 0.02 0.00 87 1014.8
20260501232404 52 213 0.0 0.0 0.00 0.02 0.00 87 1014.8
20260501231905 52 213 0.0 0.0 0.00 0.02 0.00 87 1014.8
20260501231405 52 213 0.0 0.0 0.00 0.02 0.00 87 1014.9
20260501230905 52 213 0.0 0.0 0.00 0.02 0.00 87 1014.9
20260501230406 52 213 0.0 0.0 0.00 0.02 0.00 87 1014.8
20260501225903 52 213 0.0 0.0 0.00 0.02 0.02 87 1014.9
20260501225403 52 213 0.0 0.0 0.00 0.02 0.02 87 1014.9
20260501224904 51 213 0.0 0.0 0.00 0.02 0.02 87 1014.9
20260501224404 51 213 0.0 0.0 0.00 0.02 0.02 87 1014.9
20260501223403 51 213 0.0 0.0 0.00 0.02 0.02 86 1014.8
20260501222903 51 213 0.0 0.0 0.00 0.02 0.02 86 1014.9
20260501222403 51 213 0.0 0.0 0.00 0.02 0.02 86 1015.0
20260501221903 51 213 0.0 0.0 0.00 0.02 0.02 86 1015.0
20260501220904 51 213 0.0 0.0 0.00 0.02 0.02 85 1015.0
20260501220403 51 213 0.0 0.0 0.00 0.02 0.02 85 1015.1
20260501215403 51 213 0.0 0.0 0.00 0.02 0.02 84 1015.0
20260501213403 52 213 0.0 0.0 0.00 0.02 0.02 81 1015.1
20260501212905 52 213 0.0 0.0 0.00 0.02 0.02 81 1015.2
20260501212403 52 213 0.0 0.0 0.00 0.02 0.02 81 1015.1
20260501211904 53 213 0.0 0.0 0.00 0.02 0.02 80 1015.1
20260501211405 53 213 0.0 0.0 0.00 0.02 0.02 80 1015.2
20260501210905 53 213 0.0 0.0 0.00 0.02 0.02 79 1015.1
20260501205904 53 213 0.0 0.0 0.00 0.02 0.02 78 1015.1
20260501205403 54 213 0.0 0.0 0.00 0.02 0.02 78 1015.1
20260501204903 54 213 0.0 0.0 0.00 0.02 0.02 78 1015.1
20260501204404 54 213 0.0 0.0 0.00 0.02 0.02 78 1015.2
20260501203403 54 213 0.0 1.0 0.00 0.02 0.02 77 1015.1
20260501202903 54 213 0.0 0.0 0.00 0.02 0.02 77 1015.2
20260501202403 55 213 0.0 0.0 0.00 0.02 0.02 77 1015.2
20260501201903 55 213 0.0 0.0 0.00 0.02 0.02 76 1015.3
20260501201403 55 213 0.0 0.0 0.00 0.02 0.02 75 1015.3
20260501200403 55 213 0.0 0.0 0.00 0.02 0.02 74 1015.2
20260501195904 56 213 0.0 0.0 0.00 0.02 0.02 73 1015.2
20260501195402 56 213 0.0 1.0 0.00 0.02 0.02 73 1015.3
20260501194903 56 213 0.0 0.0 0.00 0.02 0.02 73 1015.2
20260501194405 57 213 0.0 0.0 0.00 0.02 0.02 72 1015.2
20260501193903 57 213 0.0 0.0 0.00 0.02 0.02 72 1015.2
20260501193403 57 213 0.0 0.0 0.00 0.02 0.02 71 1015.3
20260501192903 57 213 0.0 0.0 0.00 0.02 0.02 71 1015.2
20260501192403 58 213 0.0 0.0 0.00 0.02 0.02 70 1015.2
20260501191904 58 213 0.0 0.0 0.00 0.02 0.02 69 1015.2
20260501191403 58 213 0.0 1.0 0.00 0.02 0.02 69 1015.2
20260501190903 58 213 0.0 0.0 0.00 0.02 0.02 69 1015.2
20260501190403 59 213 0.0 0.0 0.00 0.02 0.02 69 1015.2
20260501185403 59 213 0.0 0.0 0.00 0.02 0.02 67 1015.2
20260501184903 59 213 0.0 1.0 0.00 0.02 0.02 66 1015.2
20260501184403 59 213 0.0 0.0 0.00 0.02 0.02 66 1015.2
20260501183903 60 213 0.0 2.0 0.00 0.02 0.02 66 1015.1
20260501183403 60 213 1.0 8.0 0.00 0.02 0.02 67 1015.1
20260501182904 60 213 3.0 8.0 0.00 0.02 0.02 66 1015.1
20260501182403 60 212 0.0 3.0 0.00 0.02 0.02 66 1015.1
20260501181904 60 212 0.0 2.0 0.00 0.02 0.02 66 1015.1
20260501181403 60 212 0.0 2.0 0.00 0.02 0.02 66 1015.1
20260501180903 60 212 0.0 1.0 0.00 0.02 0.02 66 1015.1
20260501180404 60 212 0.0 3.0 0.00 0.02 0.02 65 1015.1
20260501175904 60 212 3.0 6.0 0.00 0.02 0.02 64 1015.1
20260501175403 61 212 2.0 3.0 0.00 0.02 0.02 64 1015.2
20260501174404 61 212 2.0 6.0 0.00 0.02 0.02 63 1015.1
20260501173904 61 212 5.0 9.0 0.00 0.02 0.02 62 1015.1
20260501173403 61 211 6.0 10.0 0.00 0.02 0.02 61 1015.0
20260501172903 62 215 5.0 10.0 0.00 0.02 0.02 62 1015.1
20260501172404 61 214 5.0 8.0 0.00 0.02 0.02 62 1015.1
20260501171903 61 215 5.0 9.0 0.00 0.02 0.02 62 1015.1
20260501171404 62 212 6.0 8.0 0.00 0.02 0.02 61 1015.1